| time (UTC) | temp F | wind direction | speed knots | gust knots | rain 1hr in | rain 24hr in | rain mn in | humidity % | barometer mb |
| 20260506211813 | 60 | 12 | 0.9 | 1.7 | 0.00 | 0.34 | 0.34 | 94 | 1009.5 |
| 20260506211309 | 60 | 305 | 2.6 | 2.6 | 0.00 | 0.34 | 0.34 | 93 | 1009.6 |
| 20260506210807 | 61 | 78 | 0.9 | 6.1 | 0.00 | 0.34 | 0.34 | 92 | 1009.4 |
| 20260506210303 | 62 | 23 | 0.0 | 1.7 | 0.00 | 0.34 | 0.34 | 92 | 1009.5 |
| 20260506205800 | 62 | 4 | 1.7 | 2.6 | 0.00 | 0.34 | 0.34 | 89 | 1009.5 |
| 20260506205256 | 62 | 351 | 0.9 | 2.6 | 0.00 | 0.34 | 0.34 | 91 | 1009.4 |
| 20260506204753 | 61 | 34 | 0.9 | 5.2 | 0.00 | 0.34 | 0.34 | 92 | 1009.4 |
| 20260506204251 | 61 | 39 | 2.6 | 4.3 | 0.00 | 0.34 | 0.34 | 92 | 1009.3 |
| 20260506203748 | 60 | 0 | 4.3 | 6.1 | 0.00 | 0.34 | 0.34 | 93 | 1009.4 |
| 20260506203245 | 60 | 4 | 0.0 | 2.6 | 0.00 | 0.34 | 0.34 | 94 | 1009.6 |
| 20260506202742 | 59 | 20 | 0.9 | 2.6 | 0.00 | 0.34 | 0.34 | 96 | 1009.5 |
| 20260506202239 | 59 | 11 | 0.9 | 4.3 | 0.00 | 0.34 | 0.34 | 96 | 1009.4 |
| 20260506201736 | 59 | 35 | 0.0 | 2.6 | 0.00 | 0.34 | 0.34 | 96 | 1009.7 |
| 20260506201232 | 59 | 285 | 1.7 | 2.6 | 0.00 | 0.34 | 0.34 | 96 | 1009.5 |
| 20260506200729 | 59 | 17 | 0.9 | 1.7 | 0.00 | 0.34 | 0.34 | 97 | 1009.6 |
| 20260506200226 | 60 | 21 | 0.9 | 1.7 | 0.00 | 0.34 | 0.34 | 97 | 1009.5 |
| 20260506195722 | 59 | 185 | 0.9 | 4.3 | 0.00 | 0.34 | 0.34 | 97 | 1009.6 |
| 20260506195218 | 60 | 349 | 1.7 | 2.6 | 0.00 | 0.34 | 0.34 | 97 | 1009.7 |
| 20260506194710 | 59 | 248 | 0.0 | 6.1 | 0.00 | 0.34 | 0.34 | 97 | 1009.9 |
| 20260506194206 | 60 | 319 | 1.7 | 2.6 | 0.00 | 0.34 | 0.34 | 98 | 1009.7 |
| 20260506193659 | 59 | 23 | 0.9 | 2.6 | 0.00 | 0.34 | 0.34 | 99 | 1009.7 |
| 20260506193155 | 59 | 5 | 1.7 | 4.3 | 0.00 | 0.34 | 0.34 | 99 | 1009.7 |
| 20260506192652 | 59 | 25 | 0.0 | 0.9 | 0.00 | 0.34 | 0.34 | 99 | 1009.9 |
| 20260506192148 | 59 | 19 | 0.0 | 0.9 | 0.00 | 0.34 | 0.34 | 99 | 1009.9 |
| 20260506191646 | 58 | 55 | 0.0 | 2.6 | 0.00 | 0.34 | 0.34 | 99 | 1009.8 |
| 20260506191142 | 58 | 338 | 1.7 | 1.7 | 0.00 | 0.34 | 0.34 | 99 | 1010.0 |
| 20260506190639 | 58 | 31 | 0.9 | 1.7 | 0.00 | 0.34 | 0.34 | 99 | 1009.9 |
| 20260506190135 | 59 | 353 | 0.9 | 1.7 | 0.00 | 0.34 | 0.34 | 99 | 1010.2 |
| 20260506185633 | 59 | 32 | 0.9 | 1.7 | 0.00 | 0.34 | 0.34 | 99 | 1010.0 |
| 20260506185129 | 59 | 24 | 0.0 | 1.7 | 0.00 | 0.34 | 0.34 | 99 | 1010.0 |
| 20260506184626 | 59 | 18 | 0.9 | 1.7 | 0.00 | 0.34 | 0.34 | 99 | 1010.1 |
| 20260506184123 | 58 | 343 | 1.7 | 5.2 | 0.00 | 0.34 | 0.34 | 99 | 1010.0 |
| 20260506183620 | 58 | 353 | 2.6 | 2.6 | 0.00 | 0.34 | 0.34 | 99 | 1010.1 |
| 20260506183116 | 59 | 321 | 2.6 | 2.6 | 0.00 | 0.34 | 0.34 | 99 | 1010.2 |
| 20260506182614 | 58 | 54 | 0.9 | 4.3 | 0.00 | 0.34 | 0.34 | 99 | 1010.0 |
| 20260506182111 | 58 | 30 | 0.9 | 2.6 | 0.00 | 0.34 | 0.34 | 99 | 1010.1 |
| 20260506181609 | 58 | 47 | 0.9 | 0.9 | 0.00 | 0.34 | 0.34 | 99 | 1010.3 |
| 20260506181105 | 58 | 37 | 0.0 | 4.3 | 0.00 | 0.34 | 0.34 | 99 | 1010.1 |
| 20260506180602 | 58 | 83 | 1.7 | 4.3 | 0.00 | 0.34 | 0.34 | 99 | 1010.3 |
| 20260506180059 | 58 | 62 | 0.9 | 1.7 | 0.00 | 0.34 | 0.34 | 99 | 1010.5 |
| 20260506175555 | 58 | 33 | 0.0 | 2.6 | 0.05 | 0.34 | 0.34 | 99 | 1010.4 |
| 20260506175051 | 58 | 7 | 0.9 | 1.7 | 0.05 | 0.34 | 0.34 | 99 | 1010.3 |
| 20260506174550 | 58 | 22 | 0.0 | 0.9 | 0.00 | 0.33 | 0.33 | 99 | 1010.5 |
| 20260506174045 | 58 | 32 | 0.9 | 1.7 | 0.07 | 0.33 | 0.33 | 99 | 1010.3 |
| 20260506173538 | 58 | 21 | 0.9 | 2.6 | 0.07 | 0.33 | 0.33 | 99 | 1010.7 |
| 20260506173034 | 58 | 41 | 0.0 | 1.7 | 0.05 | 0.32 | 0.32 | 99 | 1010.5 |
| 20260506172532 | 58 | 34 | 0.0 | 2.6 | 0.05 | 0.32 | 0.32 | 99 | 1010.5 |
| 20260506172028 | 58 | 34 | 0.0 | 0.9 | 0.07 | 0.31 | 0.31 | 99 | 1010.7 |
| 20260506171525 | 58 | 64 | 0.9 | 1.7 | 0.07 | 0.31 | 0.31 | 99 | 1010.7 |
| 20260506171023 | 58 | 31 | 0.0 | 0.9 | 0.05 | 0.30 | 0.30 | 99 | 1010.5 |
| 20260506170520 | 58 | 36 | 0.0 | 1.7 | 0.05 | 0.30 | 0.30 | 99 | 1010.5 |
| 20260506170017 | 57 | 31 | 0.0 | 0.0 | 0.00 | 0.29 | 0.29 | 99 | 1010.4 |
| 20260506165515 | 58 | 33 | 0.0 | 0.9 | 0.00 | 0.29 | 0.29 | 99 | 1010.5 |
| 20260506165006 | 58 | 39 | 0.0 | 0.0 | 0.00 | 0.29 | 0.29 | 99 | 1010.4 |
| 20260506164503 | 58 | 64 | 0.9 | 1.7 | 0.00 | 0.29 | 0.29 | 99 | 1010.5 |
| 20260506164000 | 58 | 37 | 0.0 | 1.7 | 0.07 | 0.29 | 0.29 | 99 | 1010.4 |
| 20260506163455 | 57 | 63 | 0.0 | 0.9 | 0.07 | 0.29 | 0.29 | 99 | 1010.5 |
| 20260506162949 | 57 | 68 | 0.9 | 0.9 | 0.07 | 0.28 | 0.28 | 99 | 1010.4 |
| 20260506162447 | 57 | 20 | 0.9 | 2.6 | 0.07 | 0.28 | 0.28 | 99 | 1010.7 |
| 20260506161940 | 57 | 16 | 2.6 | 4.3 | 0.05 | 0.27 | 0.27 | 99 | 1010.7 |
| 20260506161437 | 57 | 359 | 0.9 | 0.9 | 0.17 | 0.27 | 0.27 | 99 | 1011.0 |
| 20260506160934 | 58 | 38 | 0.0 | 0.9 | 0.17 | 0.25 | 0.25 | 99 | 1011.0 |
| 20260506160432 | 57 | 31 | 0.0 | 0.9 | 0.12 | 0.23 | 0.23 | 99 | 1011.1 |
| 20260506155929 | 58 | 73 | 0.0 | 2.6 | 0.12 | 0.22 | 0.22 | 99 | 1010.8 |
| 20260506155426 | 58 | 37 | 0.0 | 0.9 | 0.17 | 0.21 | 0.21 | 99 | 1010.8 |
| 20260506153548 | 58 | 163 | 0.9 | 2.6 | 0.14 | 0.16 | 0.16 | 99 | 1011.1 |
| 20260506153045 | 58 | 71 | 0.9 | 0.9 | 0.12 | 0.15 | 0.15 | 99 | 1011.3 |
| 20260506152542 | 58 | 137 | 1.7 | 2.6 | 0.05 | 0.14 | 0.14 | 99 | 1011.0 |
| 20260506152040 | 58 | 15 | 0.0 | 0.9 | 0.07 | 0.13 | 0.13 | 99 | 1010.9 |
| 20260506151538 | 58 | 34 | 0.0 | 1.7 | 0.00 | 0.12 | 0.12 | 98 | 1011.2 |
| 20260506151035 | 58 | 64 | 0.0 | 1.7 | 0.05 | 0.12 | 0.12 | 98 | 1011.0 |
| 20260506150531 | 58 | 31 | 0.9 | 1.7 | 0.05 | 0.12 | 0.12 | 98 | 1010.9 |
| 20260506150029 | 58 | 43 | 1.7 | 1.7 | 0.00 | 0.11 | 0.11 | 98 | 1010.9 |
| 20260506145525 | 58 | 111 | 2.6 | 2.6 | 0.00 | 0.11 | 0.11 | 98 | 1010.9 |
| 20260506145023 | 58 | 39 | 0.9 | 4.3 | 0.07 | 0.11 | 0.11 | 98 | 1010.9 |
| 20260506144519 | 57 | 20 | 1.7 | 5.2 | 0.07 | 0.11 | 0.11 | 98 | 1011.0 |
| 20260506144017 | 57 | 50 | 0.0 | 2.6 | 0.05 | 0.10 | 0.10 | 98 | 1011.1 |
| 20260506143514 | 57 | 169 | 3.5 | 4.3 | 0.05 | 0.10 | 0.10 | 98 | 1011.2 |
| 20260506143013 | 57 | 43 | 0.0 | 4.3 | 0.07 | 0.09 | 0.09 | 98 | 1011.1 |
| 20260506142510 | 57 | 62 | 0.0 | 1.7 | 0.07 | 0.09 | 0.09 | 98 | 1011.2 |
| 20260506142008 | 57 | 63 | 0.9 | 1.7 | 0.05 | 0.08 | 0.08 | 98 | 1011.3 |
| 20260506141506 | 57 | 40 | 0.0 | 1.7 | 0.12 | 0.08 | 0.08 | 98 | 1011.5 |
| 20260506141004 | 57 | 43 | 0.0 | 0.9 | 0.07 | 0.07 | 0.07 | 98 | 1011.4 |
| 20260506140501 | 57 | 45 | 2.6 | 4.3 | 0.00 | 0.06 | 0.06 | 97 | 1011.6 |
| 20260506135957 | 57 | 37 | 0.0 | 2.6 | 0.05 | 0.06 | 0.06 | 97 | 1011.6 |
| 20260506135455 | 57 | 346 | 1.7 | 1.7 | 0.05 | 0.06 | 0.06 | 97 | 1011.8 |
| 20260506134950 | 57 | 211 | 1.7 | 2.6 | 0.00 | 0.05 | 0.05 | 97 | 1011.5 |
| 20260506134446 | 58 | 103 | 1.7 | 2.6 | 0.00 | 0.05 | 0.05 | 97 | 1011.7 |
| 20260506133943 | 57 | 155 | 0.9 | 5.2 | 0.00 | 0.05 | 0.05 | 96 | 1011.8 |
| 20260506133441 | 58 | 179 | 3.5 | 4.3 | 0.07 | 0.05 | 0.05 | 96 | 1011.9 |
| 20260506132937 | 58 | 8 | 0.9 | 4.3 | 0.05 | 0.04 | 0.04 | 96 | 1011.9 |
| 20260506132434 | 58 | 9 | 0.9 | 4.3 | 0.12 | 0.04 | 0.04 | 95 | 1012.0 |
| 20260506131932 | 58 | 359 | 0.9 | 4.3 | 0.14 | 0.03 | 0.03 | 94 | 1012.2 |
| 20260506131428 | 58 | 17 | 1.7 | 7.8 | 0.07 | 0.02 | 0.02 | 93 | 1012.2 |
| 20260506130925 | 59 | 42 | 0.0 | 1.7 | 0.05 | 0.01 | 0.01 | 93 | 1012.1 |
| 20260506130422 | 59 | 37 | 0.0 | 1.7 | 0.05 | 0.01 | 0.01 | 91 | 1011.9 |
| 20260506125920 | 59 | 37 | 0.9 | 5.2 | 0.00 | 0.00 | 0.00 | 88 | 1011.8 |
| 20260506125418 | 60 | 10 | 2.6 | 6.1 | 0.00 | 0.00 | 0.00 | 87 | 1011.8 |
| 20260506124916 | 60 | 44 | 1.7 | 7.0 | 0.00 | 0.00 | 0.00 | 85 | 1011.5 |
| 20260506124413 | 60 | 31 | 0.0 | 2.6 | 0.00 | 0.00 | 0.00 | 85 | 1011.6 |
| 20260506123911 | 60 | 61 | 0.0 | 0.9 | 0.00 | 0.00 | 0.00 | 84 | 1011.7 |
| 20260506123409 | 61 | 183 | 4.3 | 8.7 | 0.00 | 0.00 | 0.00 | 83 | 1011.5 |
| 20260506122906 | 61 | 130 | 3.5 | 6.1 | 0.00 | 0.00 | 0.00 | 81 | 1011.3 |
| 20260506122402 | 61 | 218 | 1.7 | 5.2 | 0.00 | 0.00 | 0.00 | 80 | 1011.5 |
| 20260506121901 | 61 | 305 | 1.7 | 4.3 | 0.00 | 0.00 | 0.00 | 79 | 1011.3 |
| 20260506121357 | 61 | 31 | 0.9 | 6.1 | 0.00 | 0.00 | 0.00 | 78 | 1011.5 |
| 20260506120854 | 61 | 351 | 2.6 | 5.2 | 0.00 | 0.00 | 0.00 | 78 | 1011.7 |
| 20260506120352 | 61 | 76 | 2.6 | 4.3 | 0.00 | 0.00 | 0.00 | 78 | 1011.6 |
| 20260506115849 | 61 | 10 | 0.0 | 2.6 | 0.00 | 0.00 | 0.00 | 78 | 1011.6 |
| 20260506115347 | 62 | 134 | 4.3 | 5.2 | 0.00 | 0.00 | 0.00 | 76 | 1011.7 |
| 20260506114845 | 61 | 71 | 0.9 | 1.7 | 0.00 | 0.00 | 0.00 | 77 | 1011.7 |
| 20260506114342 | 61 | 148 | 2.6 | 5.2 | 0.00 | 0.00 | 0.00 | 76 | 1011.5 |
| 20260506113841 | 61 | 54 | 0.9 | 4.3 | 0.00 | 0.00 | 0.00 | 76 | 1011.6 |
| 20260506113338 | 61 | 58 | 0.9 | 1.7 | 0.00 | 0.00 | 0.00 | 76 | 1011.6 |
| 20260506112834 | 61 | 86 | 0.9 | 4.3 | 0.00 | 0.00 | 0.00 | 75 | 1011.6 |
| 20260506112332 | 61 | 39 | 0.0 | 0.9 | 0.00 | 0.00 | 0.00 | 75 | 1011.6 |
| 20260506111829 | 61 | 38 | 1.7 | 4.3 | 0.00 | 0.00 | 0.00 | 75 | 1011.5 |
| 20260506111328 | 62 | 43 | 1.7 | 1.7 | 0.00 | 0.00 | 0.00 | 73 | 1011.5 |
| 20260506110825 | 62 | 56 | 1.7 | 2.6 | 0.00 | 0.00 | 0.00 | 73 | 1011.7 |
| 20260506110321 | 62 | 59 | 0.9 | 2.6 | 0.00 | 0.00 | 0.00 | 73 | 1011.5 |
| 20260506105818 | 62 | 35 | 0.9 | 2.6 | 0.00 | 0.00 | 0.00 | 72 | 1011.5 |
| 20260506105315 | 62 | 40 | 0.0 | 1.7 | 0.00 | 0.00 | 0.00 | 72 | 1011.2 |
| 20260506104812 | 62 | 103 | 1.7 | 4.3 | 0.00 | 0.00 | 0.00 | 71 | 1010.9 |
| 20260506104310 | 62 | 59 | 0.9 | 6.1 | 0.00 | 0.00 | 0.00 | 70 | 1011.0 |
| 20260506103807 | 62 | 45 | 4.3 | 8.7 | 0.00 | 0.00 | 0.00 | 70 | 1011.2 |
| 20260506103305 | 62 | 57 | 2.6 | 5.2 | 0.00 | 0.00 | 0.00 | 70 | 1011.2 |
| 20260506102802 | 62 | 209 | 1.7 | 4.3 | 0.00 | 0.00 | 0.00 | 71 | 1011.1 |
| 20260506102300 | 62 | 44 | 0.9 | 4.3 | 0.00 | 0.00 | 0.00 | 70 | 1011.0 |
| 20260506101757 | 62 | 75 | 0.0 | 2.6 | 0.00 | 0.00 | 0.00 | 70 | 1010.8 |
| 20260506101253 | 62 | 227 | 5.2 | 7.8 | 0.00 | 0.00 | 0.00 | 69 | 1011.0 |
| 20260506100751 | 62 | 25 | 0.0 | 0.9 | 0.00 | 0.00 | 0.00 | 70 | 1011.2 |
| 20260506100249 | 62 | 125 | 2.6 | 4.3 | 0.00 | 0.00 | 0.00 | 69 | 1011.1 |
| 20260506095747 | 62 | 39 | 0.9 | 2.6 | 0.00 | 0.00 | 0.00 | 69 | 1011.2 |
| 20260506095244 | 62 | 1 | 0.0 | 1.7 | 0.00 | 0.00 | 0.00 | 70 | 1011.1 |
| 20260506094740 | 62 | 356 | 0.9 | 2.6 | 0.00 | 0.00 | 0.00 | 69 | 1011.1 |
| 20260506094239 | 62 | 43 | 0.9 | 1.7 | 0.00 | 0.00 | 0.00 | 68 | 1010.9 |
| 20260506093737 | 62 | 62 | 0.9 | 4.3 | 0.00 | 0.00 | 0.00 | 68 | 1011.0 |
| 20260506093234 | 62 | 33 | 1.7 | 5.2 | 0.00 | 0.00 | 0.00 | 67 | 1011.0 |
| 20260506092732 | 62 | 35 | 0.9 | 5.2 | 0.00 | 0.00 | 0.00 | 67 | 1011.0 |
| 20260506092230 | 62 | 213 | 2.6 | 4.3 | 0.00 | 0.00 | 0.00 | 67 | 1010.9 |
| 20260506091726 | 62 | 351 | 0.9 | 0.9 | 0.00 | 0.00 | 0.00 | 67 | 1011.1 |
| 20260506091224 | 62 | 33 | 0.0 | 0.9 | 0.00 | 0.00 | 0.00 | 68 | 1011.2 |
| 20260506090721 | 62 | 38 | 0.0 | 0.9 | 0.00 | 0.00 | 0.00 | 67 | 1011.3 |
| 20260506090218 | 62 | 40 | 0.0 | 2.6 | 0.00 | 0.00 | 0.00 | 66 | 1011.1 |
| 20260506085710 | 62 | 79 | 2.6 | 2.6 | 0.00 | 0.00 | 0.00 | 66 | 1011.3 |
| 20260506085206 | 62 | 24 | 0.9 | 2.6 | 0.00 | 0.00 | 0.00 | 66 | 1011.5 |
| 20260506084702 | 62 | 6 | 0.9 | 1.7 | 0.00 | 0.00 | 0.00 | 66 | 1011.4 |
| 20260506084159 | 62 | 92 | 1.7 | 1.7 | 0.00 | 0.00 | 0.00 | 65 | 1011.3 |
| 20260506083655 | 63 | 351 | 0.9 | 4.3 | 0.00 | 0.00 | 0.00 | 64 | 1011.4 |
| 20260506083154 | 63 | 296 | 2.6 | 2.6 | 0.00 | 0.00 | 0.00 | 64 | 1011.4 |
| 20260506082650 | 63 | 327 | 1.7 | 5.2 | 0.00 | 0.00 | 0.00 | 63 | 1011.2 |
| 20260506082145 | 63 | 281 | 1.7 | 4.3 | 0.00 | 0.00 | 0.00 | 63 | 1011.3 |
| 20260506081643 | 63 | 341 | 0.9 | 2.6 | 0.00 | 0.00 | 0.00 | 64 | 1011.2 |
| 20260506081141 | 63 | 23 | 0.0 | 1.7 | 0.00 | 0.00 | 0.00 | 63 | 1011.3 |
| 20260506080638 | 63 | 106 | 0.9 | 1.7 | 0.00 | 0.00 | 0.00 | 63 | 1011.3 |
| 20260506080135 | 63 | 112 | 1.7 | 1.7 | 0.00 | 0.00 | 0.00 | 63 | 1011.5 |
| 20260506073119 | 63 | 29 | 0.9 | 2.6 | 0.00 | 0.00 | 0.00 | 61 | 1011.5 |
| 20260506072615 | 63 | 344 | 1.7 | 4.3 | 0.00 | 0.00 | 0.00 | 61 | 1011.7 |
| 20260506072114 | 63 | 290 | 1.7 | 6.1 | 0.00 | 0.00 | 0.00 | 61 | 1011.5 |
| 20260506071611 | 63 | 121 | 2.6 | 2.6 | 0.00 | 0.00 | 0.00 | 61 | 1011.5 |
| 20260506071108 | 63 | 65 | 1.7 | 4.3 | 0.00 | 0.00 | 0.00 | 61 | 1011.5 |
| 20260506070605 | 63 | 42 | 0.9 | 2.6 | 0.00 | 0.00 | 0.00 | 60 | 1011.6 |
| 20260506062039 | 63 | 18 | 2.6 | 6.1 | 0.00 | 0.00 | 0.00 | 59 | 1012.0 |
| 20260506061535 | 63 | 160 | 3.5 | 6.1 | 0.00 | 0.00 | 0.00 | 59 | 1011.8 |
| 20260506061033 | 63 | 20 | 1.7 | 4.3 | 0.00 | 0.00 | 0.00 | 60 | 1012.2 |
| 20260506060531 | 63 | 72 | 0.0 | 1.7 | 0.00 | 0.00 | 0.00 | 61 | 1012.0 |
| 20260506051000 | 63 | 23 | 0.0 | 1.7 | 0.00 | 0.00 | 0.00 | 61 | 1012.2 |
| 20260506050458 | 63 | 83 | 0.9 | 1.7 | 0.00 | 0.00 | 0.00 | 61 | 1012.2 |
| 20260506044948 | 63 | 14 | 0.9 | 4.3 | 0.00 | 0.00 | 0.00 | 60 | 1012.6 |
| 20260506044446 | 62 | 21 | 0.0 | 4.3 | 0.00 | 0.00 | 0.00 | 61 | 1012.7 |
| 20260506043943 | 62 | 31 | 0.0 | 1.7 | 0.00 | 0.00 | 0.00 | 61 | 1012.5 |
| 20260506043440 | 63 | 174 | 2.6 | 2.6 | 0.00 | 0.00 | 0.00 | 61 | 1012.5 |
| 20260506042938 | 63 | 33 | 0.0 | 0.9 | 0.00 | 0.00 | 0.00 | 61 | 1012.7 |
| 20260506042437 | 63 | 12 | 0.0 | 1.7 | 0.00 | 0.00 | 0.00 | 61 | 1012.7 |
| 20260506041935 | 63 | 29 | 0.0 | 1.7 | 0.00 | 0.00 | 0.00 | 60 | 1012.6 |
| 20260506041432 | 63 | 0 | 0.0 | 2.6 | 0.00 | 0.00 | 0.00 | 61 | 1012.5 |
| 20260506040929 | 63 | 61 | 0.9 | 2.6 | 0.00 | 0.00 | 0.00 | 59 | 1012.7 |
| 20260506040427 | 63 | 25 | 0.0 | 0.9 | 0.00 | 0.00 | 0.00 | 60 | 1012.6 |
| 20260506035923 | 64 | 40 | 0.0 | 2.6 | 0.00 | 0.03 | 0.03 | 59 | 1012.7 |
| 20260506035420 | 64 | 24 | 0.9 | 1.7 | 0.00 | 0.03 | 0.03 | 58 | 1012.8 |
| 20260506034917 | 64 | 57 | 0.0 | 2.6 | 0.00 | 0.03 | 0.03 | 58 | 1012.7 |
| 20260506034414 | 64 | 51 | 0.0 | 0.9 | 0.00 | 0.03 | 0.03 | 59 | 1012.7 |
| 20260506033911 | 64 | 24 | 0.9 | 1.7 | 0.00 | 0.03 | 0.03 | 57 | 1012.8 |
| 20260506033409 | 64 | 44 | 0.0 | 0.9 | 0.00 | 0.03 | 0.03 | 57 | 1012.7 |
| 20260506032905 | 64 | 49 | 0.0 | 0.9 | 0.00 | 0.03 | 0.03 | 57 | 1012.7 |
| 20260506032402 | 64 | 29 | 0.0 | 2.6 | 0.00 | 0.03 | 0.03 | 57 | 1012.7 |
| 20260506031859 | 64 | 13 | 0.0 | 1.7 | 0.00 | 0.03 | 0.03 | 57 | 1012.4 |
| 20260506031356 | 64 | 48 | 0.0 | 0.0 | 0.00 | 0.03 | 0.03 | 57 | 1012.5 |
| 20260506030854 | 64 | 49 | 0.0 | 0.9 | 0.00 | 0.03 | 0.03 | 56 | 1012.5 |
| 20260506030352 | 65 | 40 | 0.0 | 0.0 | 0.00 | 0.03 | 0.03 | 56 | 1012.6 |
| 20260506025848 | 65 | 76 | 0.9 | 1.7 | 0.00 | 0.03 | 0.03 | 54 | 1012.4 |
| 20260506025344 | 66 | 31 | 0.0 | 0.9 | 0.00 | 0.03 | 0.03 | 55 | 1012.4 |
| 20260506024842 | 66 | 46 | 0.9 | 4.3 | 0.00 | 0.03 | 0.03 | 54 | 1012.5 |
| 20260506024338 | 66 | 124 | 2.6 | 5.2 | 0.00 | 0.03 | 0.03 | 55 | 1012.6 |
| 20260506023835 | 66 | 42 | 0.0 | 0.9 | 0.00 | 0.03 | 0.03 | 55 | 1012.5 |
| 20260506023331 | 67 | 37 | 0.9 | 2.6 | 0.00 | 0.03 | 0.03 | 53 | 1012.5 |
| 20260506022828 | 67 | 54 | 0.9 | 1.7 | 0.00 | 0.03 | 0.03 | 54 | 1012.5 |
| 20260506022326 | 67 | 32 | 0.0 | 2.6 | 0.00 | 0.03 | 0.03 | 53 | 1012.4 |
| 20260506021824 | 67 | 39 | 0.0 | 0.9 | 0.00 | 0.03 | 0.03 | 54 | 1012.5 |
| 20260506021321 | 68 | 49 | 0.0 | 1.7 | 0.00 | 0.03 | 0.03 | 53 | 1012.5 |
| 20260506020817 | 68 | 39 | 0.0 | 4.3 | 0.00 | 0.03 | 0.03 | 52 | 1012.5 |
| 20260506020315 | 68 | 115 | 4.3 | 5.2 | 0.00 | 0.03 | 0.03 | 50 | 1012.5 |
| 20260506015813 | 68 | 210 | 0.9 | 1.7 | 0.00 | 0.03 | 0.03 | 51 | 1012.3 |
| 20260506015310 | 68 | 101 | 2.6 | 4.3 | 0.00 | 0.03 | 0.03 | 50 | 1012.3 |
| 20260506014806 | 68 | 46 | 0.0 | 5.2 | 0.00 | 0.03 | 0.03 | 51 | 1012.4 |
| 20260506014303 | 68 | 35 | 0.0 | 1.7 | 0.00 | 0.03 | 0.03 | 52 | 1012.5 |
| 20260506013800 | 68 | 314 | 0.9 | 1.7 | 0.00 | 0.03 | 0.03 | 52 | 1012.2 |
| 20260506013257 | 68 | 338 | 0.9 | 1.7 | 0.00 | 0.03 | 0.03 | 51 | 1012.3 |
| 20260506012754 | 68 | 62 | 0.9 | 2.6 | 0.00 | 0.03 | 0.03 | 51 | 1012.2 |
| 20260506012251 | 68 | 93 | 0.0 | 1.7 | 0.00 | 0.03 | 0.03 | 50 | 1012.1 |
| 20260506011748 | 68 | 22 | 0.9 | 1.7 | 0.00 | 0.03 | 0.03 | 50 | 1012.2 |
| 20260506011244 | 69 | 71 | 0.9 | 1.7 | 0.00 | 0.03 | 0.03 | 49 | 1012.1 |
| 20260506010743 | 69 | 33 | 0.0 | 1.7 | 0.00 | 0.03 | 0.03 | 50 | 1011.8 |
| 20260506010240 | 69 | 44 | 0.0 | 1.7 | 0.00 | 0.03 | 0.03 | 50 | 1011.9 |
| 20260506005737 | 69 | 43 | 0.0 | 1.7 | 0.00 | 0.03 | 0.03 | 51 | 1012.0 |
| 20260506005233 | 69 | 359 | 0.9 | 1.7 | 0.00 | 0.03 | 0.03 | 48 | 1011.7 |
| 20260506004729 | 69 | 39 | 0.0 | 0.0 | 0.00 | 0.03 | 0.03 | 49 | 1012.0 |
| 20260506004227 | 70 | 89 | 0.9 | 2.6 | 0.00 | 0.03 | 0.03 | 47 | 1012.0 |
| 20260506003723 | 70 | 38 | 0.0 | 0.9 | 0.00 | 0.03 | 0.03 | 48 | 1012.0 |
| 20260506003220 | 70 | 45 | 1.7 | 2.6 | 0.00 | 0.03 | 0.03 | 47 | 1011.8 |
| 20260506002715 | 70 | 25 | 0.0 | 0.9 | 0.00 | 0.03 | 0.03 | 47 | 1011.7 |
| 20260506002212 | 71 | 42 | 0.0 | 2.6 | 0.00 | 0.03 | 0.03 | 47 | 1011.4 |
| 20260506001708 | 71 | 27 | 1.7 | 5.2 | 0.00 | 0.03 | 0.03 | 47 | 1011.7 |
| 20260506001206 | 71 | 3 | 0.9 | 4.3 | 0.00 | 0.03 | 0.03 | 47 | 1011.5 |
| 20260506000702 | 70 | 40 | 0.0 | 2.6 | 0.00 | 0.03 | 0.03 | 48 | 1011.4 |
| 20260506000200 | 70 | 13 | 0.9 | 1.7 | 0.00 | 0.03 | 0.03 | 47 | 1011.5 |
| 20260505235657 | 71 | 54 | 0.0 | 4.3 | 0.00 | 0.03 | 0.03 | 48 | 1011.5 |
| 20260505235155 | 71 | 25 | 0.0 | 0.9 | 0.00 | 0.03 | 0.03 | 47 | 1011.5 |
| 20260505234651 | 71 | 204 | 0.9 | 0.9 | 0.00 | 0.03 | 0.03 | 46 | 1011.4 |
| 20260505234149 | 71 | 10 | 0.9 | 2.6 | 0.00 | 0.03 | 0.03 | 46 | 1011.3 |
| 20260505233645 | 71 | 5 | 0.9 | 1.7 | 0.00 | 0.03 | 0.03 | 47 | 1011.2 |
| 20260505233143 | 71 | 307 | 1.7 | 2.6 | 0.00 | 0.03 | 0.03 | 47 | 1011.3 |
| 20260505232640 | 71 | 188 | 4.3 | 6.1 | 0.00 | 0.03 | 0.03 | 45 | 1011.1 |
| 20260505232138 | 71 | 349 | 4.3 | 5.2 | 0.00 | 0.03 | 0.03 | 46 | 1011.5 |
| 20260505231634 | 70 | 29 | 0.0 | 2.6 | 0.00 | 0.03 | 0.03 | 48 | 1011.4 |
| 20260505231133 | 70 | 34 | 0.0 | 1.7 | 0.00 | 0.03 | 0.03 | 51 | 1011.3 |
| 20260505230631 | 71 | 358 | 0.9 | 2.6 | 0.00 | 0.03 | 0.03 | 49 | 1011.3 |
| 20260505230127 | 71 | 24 | 0.9 | 1.7 | 0.00 | 0.03 | 0.03 | 49 | 1011.2 |
| 20260505225623 | 71 | 64 | 0.9 | 1.7 | 0.00 | 0.03 | 0.03 | 48 | 1011.3 |
| 20260505225120 | 71 | 44 | 0.0 | 1.7 | 0.00 | 0.03 | 0.03 | 50 | 1011.2 |
| 20260505224616 | 71 | 41 | 0.0 | 1.7 | 0.00 | 0.03 | 0.03 | 51 | 1011.0 |
| 20260505224114 | 72 | 36 | 0.0 | 1.7 | 0.00 | 0.03 | 0.03 | 46 | 1011.0 |
| 20260505223611 | 72 | 8 | 1.7 | 5.2 | 0.00 | 0.03 | 0.03 | 47 | 1011.2 |
| 20260505223107 | 72 | 284 | 3.5 | 4.3 | 0.00 | 0.03 | 0.03 | 47 | 1011.0 |
| 20260505222603 | 71 | 6 | 0.9 | 1.7 | 0.00 | 0.03 | 0.03 | 49 | 1011.1 |
| 20260505222059 | 71 | 17 | 0.9 | 5.2 | 0.00 | 0.03 | 0.03 | 51 | 1011.1 |
| 20260505221557 | 70 | 27 | 0.0 | 2.6 | 0.00 | 0.03 | 0.03 | 54 | 1011.1 |
| 20260505221053 | 70 | 42 | 0.0 | 1.7 | 0.00 | 0.03 | 0.03 | 55 | 1011.2 |
| 20260505220550 | 70 | 31 | 0.0 | 0.0 | 0.00 | 0.03 | 0.03 | 56 | 1011.0 |
| 20260505220048 | 71 | 40 | 0.0 | 0.9 | 0.00 | 0.03 | 0.03 | 53 | 1010.9 |
| 20260505215546 | 71 | 7 | 0.9 | 0.9 | 0.00 | 0.03 | 0.03 | 52 | 1010.8 |
| 20260505215044 | 71 | 31 | 0.9 | 1.7 | 0.00 | 0.03 | 0.03 | 52 | 1011.0 |
| 20260505214542 | 71 | 12 | 0.9 | 0.9 | 0.00 | 0.03 | 0.03 | 52 | 1010.9 |
| 20260505214038 | 71 | 21 | 0.0 | 0.9 | 0.00 | 0.03 | 0.03 | 50 | 1011.0 |
| 20260505213536 | 72 | 196 | 1.7 | 4.3 | 0.00 | 0.03 | 0.03 | 50 | 1010.9 |
| 20260505213032 | 71 | 72 | 0.9 | 4.3 | 0.00 | 0.03 | 0.03 | 51 | 1010.9 |
| 20260505212529 | 72 | 178 | 3.5 | 7.8 | 0.00 | 0.03 | 0.03 | 50 | 1011.1 |